SCP
0 0 0 0 0 0 0 0 0 0 0 0 0 0 0 0 0 0 0 0 0 0 0 0 0 0 0 0 0 0 0 0 0 0 1 1 1 1 1 1 1 1 1 1
0 0 0 0 0 0 0 0 0 0 0 0 0 0 0 0 0 0 0 0 0 0 0 0 0 0 0 0 0 0 0 0 0 0 1 1 1 1 1 1 1 1 1 1
0 0 0 0 0 0 0 0 0 0 0 0 0 0 0 0 0 0 0 0 0 0 0 0 0 0 0 0 0 0 0 0 0 1 1 1 0 1 1 1 1 1 1 1
0 0 0 0 0 0 0 0 0 0 0 0 0 0 0 0 0 0 0 0 0 0 0 0 0 0 0 0 0 0 0 0 0 1 1 1 0 1 1 1 1 1 1 1
0 0 0 0 0 0 0 0 0 0 0 0 0 0 0 0 0 0 0 0 0 0 0 0 0 0 0 0 0 0 0 0 1 1 1 1 1 1 1 1 1 1 2 2
0 0 0 0 0 0 0 0 0 0 0 0 0 0 0 0 0 0 0 0 0 0 0 0 0 0 0 0 0 1 1 1 1 1 1 1 1 1 1 1 1 2 2 2
0 0 0 0 0 0 0 0 0 0 0 0 0 0 0 0 0 0 0 0 0 0 0 0 0 0 0 0 0 1 1 1 1 1 1 1 1 1 1 1 2 2 1 1
0 0 0 0 0 0 0 0 0 0 0 0 0 0 0 0 0 0 0 0 0 0 0 1 1 1 0 0 0 1 1 1 2 1 1 1 1 1 1 1 1 1 1 1
0 0 0 0 0 0 0 0 0 0 0 0 0 0 0 0 0 0 0 0 0 0 1 1 1 1 0 0 0 0 1 1 2 2 1 1 1 1 1 1 1 1 1 0
0 0 0 0 0 0 0 0 0 0 0 0 0 0 0 0 0 0 0 0 0 0 1 1 1 1 0 0 0 0 1 1 1 2 2 2 2 1 2 2 1 1 0 0
0 0 0 0 0 0 0 0 0 0 0 0 0 0 0 0 0 0 0 0 0 0 0 1 1 1 1 0 0 1 1 1 1 2 2 2 2 2 2 2 1 1 0 0
0 0 0 0 0 0 0 0 0 0 0 0 0 0 0 0 0 0 0 0 0 0 0 0 1 1 1 1 1 1 1 1 1 2 2 2 2 2 2 2 1 1 0 0
0 0 0 0 0 0 0 0 0 0 0 0 0 0 0 0 0 0 0 0 0 0 0 0 0 1 1 1 1 2 2 2 2 2 2 2 2 2 2 1 1 1 0 0
0 0 0 0 0 0 0 0 0 0 0 0 0 0 0 0 0 0 0 0 0 0 0 0 0 0 1 1 1 2 2 2 2 2 2 2 2 3 2 2 1 1 1 0
0 0 0 0 0 0 0 0 0 0 0 0 0 0 0 0 0 0 0 0 0 0 0 0 0 1 1 1 1 2 2 2 2 2 2 2 2 3 3 2 1 1 1 1
0 0 0 0 0 0 0 0 0 0 0 0 0 0 0 0 0 0 0 0 0 0 0 1 1 1 1 1 1 2 2 2 2 2 2 2 2 3 3 2 2 1 1 1
0 0 0 0 0 0 0 0 0 0 0 0 0 0 0 0 0 0 0 0 0 0 1 1 1 1 1 1 2 2 2 2 2 2 2 2 2 3 3 3 2 2 1 1
0 0 0 0 0 0 0 0 0 0 0 0 0 0 0 0 0 0 0 0 0 1 1 0 0 1 1 1 1 2 2 2 2 2 2 2 2 3 3 4 3 2 1 1
0 0 0 0 0 0 0 0 0 0 0 0 0 0 0 0 0 0 0 0 0 0 0 0 0 0 0 1 1 1 1 1 1 1 1 2 3 3 4 4 4 3 2 1
0 0 0 0 0 0 0 0 0 0 0 0 0 0 0 0 0 0 0 0 0 0 0 0 0 0 0 0 1 1 1 1 1 1 1 2 3 3 4 4 4 4 3 2
0 0 0 0 0 0 0 0 0 0 0 0 0 0 0 0 0 0 0 0 0 0 0 0 0 0 0 0 1 1 1 1 1 1 1 2 3 3 4 4 5 5 4 3
0 0 0 0 0 0 0 0 0 0 0 0 0 0 0 0 0 0 0 0 0 0 0 0 0 0 0 0 0 0 0 1 1 1 1 2 3 4 4 5 6 5 4 3
0 0 0 0 0 0 0 0 0 0 0 0 0 0 0 0 0 0 0 0 0 0 1 1 1 0 0 0 0 0 0 0 0 1 1 1 3 4 4 5 5 4 3 2
0 0 0 0 0 0 0 0 0 0 0 0 0 0 0 0 0 0 0 0 0 0 1 1 1 0 0 0 0 0 0 0 0 0 1 1 2 3 3 3 2 2 1 1
0 0 0 0 0 0 0 0 0 0 0 0 0 0 0 0 0 0 0 0 0 0 0 0 1 0 0 0 0 0 0 0 0 0 1 1 1 2 2 1 1 0 0 0
0 0 0 0 0 0 0 0 0 0 0 0 0 0 0 0 0 0 0 0 0 0 0 0 0 0 0 0 0 0 0 0 0 0 1 1 1 1 1 1 0 0 0 0
Wind_Speed
3 5 5 4 4 3 3 4 4 2 1 4 5 6 5 6 8 8 8 8 8 7 7 6 7 7 7 6 6 6 6 5 4 3 2 2 2 2 1 1 1 1 1 1
6 6 4 2 3 4 5 6 4 2 2 4 5 7 6 6 8 8 8 8 9 8 7 8 8 7 8 8 7 6 6 5 4 3 2 2 2 1 1 1 1 1 1 1
7 2 3 5 5 6 6 6 5 4 2 5 6 7 6 5 6 7 8 8 8 8 9 9 9 8 8 8 8 6 6 6 5 4 3 3 2 2 2 2 1 1 1 1
5 3 5 6 6 7 6 3 5 5 6 4 5 6 4 4 6 6 7 7 7 7 8 8 9 9 9 9 8 8 7 6 5 5 4 4 3 3 2 2 2 2 1 1
4 4 5 6 5 5 3 1 4 6 7 7 7 7 3 4 5 5 5 6 6 6 7 8 8 9 9 9 8 7 7 6 6 6 5 5 4 2 2 2 2 2 2 2
4 2 4 4 2 3 3 4 4 5 6 8 5 7 3 2 2 2 3 4 4 5 6 7 7 7 8 7 7 7 7 7 6 6 6 5 5 4 4 3 3 2 2 2
6 6 4 3 4 5 6 6 4 5 6 4 2 6 3 1 1 1 1 2 3 4 5 6 7 8 8 8 8 8 8 7 7 7 6 6 5 5 5 4 3 3 2 2
6 6 5 5 6 6 7 8 5 4 4 2 4 6 1 1 0 1 1 2 3 3 4 5 6 7 7 8 8 8 8 8 8 8 7 6 6 4 3 4 3 3 2 2
5 3 3 3 4 6 7 7 5 6 6 6 5 3 2 2 3 3 3 2 2 3 3 4 5 6 6 7 8 8 8 8 8 7 7 6 6 5 5 4 4 3 2 2
5 5 3 3 5 3 5 4 5 6 5 6 5 5 3 5 3 3 2 2 2 2 2 3 4 4 5 6 6 7 7 7 7 7 6 5 6 6 5 5 5 4 4 3
7 7 5 6 7 6 6 7 6 6 6 6 4 1 2 2 2 1 1 1 1 2 2 3 3 4 4 4 5 6 7 7 7 7 7 7 6 6 6 5 5 4 4 4
6 6 6 6 2 3 6 7 8 7 6 7 6 2 3 1 0 0 1 1 1 1 1 2 3 3 4 4 4 5 5 6 6 7 7 7 6 6 6 6 5 5 5 4
5 7 7 6 6 5 5 6 8 8 7 7 8 4 4 1 1 1 2 1 0 1 1 2 3 3 4 4 4 4 4 5 5 5 6 6 6 7 7 6 6 5 5 5
5 7 8 8 4 3 6 7 8 9 8 9 11 10 6 5 4 3 2 2 1 1 2 2 3 3 3 4 4 4 4 4 4 5 5 6 6 6 6 6 6 6 6 6
5 7 8 8 6 6 9 10 10 13 13 12 11 11 10 7 6 5 3 3 2 2 2 2 3 3 3 4 4 4 4 4 4 5 5 5 5 5 5 6 6 6 6 6
4 6 6 8 7 8 10 11 12 13 13 13 13 12 8 6 4 4 4 3 4 3 3 3 3 3 4 4 4 4 4 4 4 5 4 4 4 4 5 5 5 5 6 6
5 6 7 7 5 7 11 10 11 11 11 11 12 9 5 6 5 5 4 4 4 4 3 3 3 3 3 3 4 4 4 4 4 4 4 4 4 4 5 5 5 5 6 6
8 8 6 6 6 11 3 1 6 9 9 10 9 6 6 5 4 4 4 4 4 3 3 3 3 3 3 3 3 4 4 4 4 4 4 3 3 4 4 4 5 5 5 5
8 8 6 6 8 10 5 3 4 6 7 7 7 5 4 3 3 4 3 3 3 3 3 3 3 3 3 3 3 4 4 4 4 4 4 3 3 3 3 4 4 4 4 4
6 8 8 7 8 8 2 2 2 5 7 3 4 4 4 5 5 2 0 1 2 2 2 2 2 2 3 3 3 5 5 5 4 4 4 3 3 3 3 3 3 3 4 4
6 7 10 11 10 8 1 2 5 7 2 1 2 3 5 5 3 2 1 1 1 2 2 2 2 2 2 3 4 5 5 5 4 3 3 3 3 3 3 3 3 3 3 3
7 7 8 8 10 7 4 5 6 3 2 1 1 2 3 2 2 1 1 2 2 2 2 2 2 2 2 3 4 4 4 3 3 3 3 3 3 3 3 3 2 3 3 3
6 5 4 6 5 2 2 4 2 3 3 2 2 2 2 3 3 2 2 2 2 2 2 2 2 2 2 3 4 4 3 3 3 3 4 3 3 3 3 3 3 2 2 2
4 4 6 7 6 4 4 5 4 4 3 3 3 3 3 4 3 3 3 3 2 2 2 2 2 2 2 2 3 3 2 3 4 3 3 3 3 3 2 2 2 2 2 2
5 5 7 9 7 5 5 5 4 3 4 4 3 3 4 4 4 4 3 3 2 2 2 2 2 2 2 2 2 2 2 3 3 3 3 3 3 3 3 2 1 1 1 1
7 8 8 7 6 6 6 4 4 5 5 4 4 4 4 4 5 4 4 3 2 2 2 2 2 3 2 2 2 2 2 3 3 3 3 2 2 3 3 2 2 2 1 1
Wind_Direction
184 209 208 205 230 259 239 238 241 245 198 232 237 248 244 212 216 221 218 214 210 209 197 188 185 185 185 183 181 174 177 170 167 165 167 156 146 127 112 114 104 115 122 116
197 213 220 213 208 220 227 234 241 230 193 250 258 263 253 226 223 227 227 220 214 209 197 187 186 182 188 186 186 181 179 179 174 171 167 159 142 136 114 106 96 93 115 132
226 200 174 199 207 219 228 245 254 261 242 229 261 255 229 209 215 222 228 227 219 210 204 194 189 187 189 190 188 185 182 176 172 171 161 146 143 158 156 147 127 117 117 115
230 215 206 219 229 242 245 257 256 252 253 249 247 274 231 204 207 213 217 216 216 209 206 198 192 191 192 192 188 188 184 178 171 173 177 179 185 182 176 164 163 167 158 155
207 197 214 229 238 240 264 259 244 252 263 264 239 258 242 190 218 210 204 206 210 205 202 199 195 196 194 187 187 189 185 181 178 183 184 198 198 186 169 172 171 172 162 182
230 207 240 247 221 207 182 188 199 227 249 251 241 247 253 198 230 195 175 185 189 189 191 194 192 191 188 182 183 187 190 183 184 188 190 196 196 187 180 184 177 181 173 187
212 205 200 211 203 185 209 230 231 220 221 237 180 246 258 13 338 249 200 167 164 166 174 180 184 186 183 184 186 188 189 187 186 192 196 198 200 200 197 191 189 189 187 193
229 212 190 204 227 224 219 237 256 270 265 255 209 239 205 77 355 187 164 130 132 145 157 171 182 185 183 186 189 191 193 192 190 195 198 199 196 203 203 204 203 200 202 208
242 220 160 201 223 227 216 227 260 279 279 271 232 219 210 189 182 155 149 138 138 142 154 167 177 183 183 185 188 193 195 196 194 198 199 201 200 200 204 208 208 204 210 214
248 246 194 176 192 210 260 221 212 236 256 255 232 233 220 177 164 148 149 143 132 133 147 163 168 173 179 186 189 192 197 199 196 198 199 200 204 202 204 205 205 206 211 211
238 242 202 191 216 214 198 207 226 235 255 273 262 209 85 148 130 136 82 59 86 132 146 153 162 165 168 177 185 191 199 201 199 201 202 200 203 204 203 208 211 213 215 212
220 249 237 216 192 289 239 232 228 238 238 249 272 274 106 144 51 352 2 24 39 93 134 143 150 158 165 176 180 189 199 201 201 203 203 204 202 202 207 211 215 216 215 218
198 233 236 210 189 192 218 224 232 245 257 248 249 246 128 165 288 310 313 317 326 158 154 150 151 164 175 181 182 185 194 198 199 199 202 204 205 207 212 215 217 220 219 219
232 236 243 253 276 223 224 223 225 231 242 250 248 258 246 253 272 278 278 283 264 217 180 176 179 180 182 184 186 188 191 195 192 192 199 206 211 212 214 216 218 222 223 223
231 245 248 261 269 255 249 242 230 234 245 257 261 262 270 270 269 269 264 263 255 236 216 208 208 200 194 194 194 194 195 195 191 192 201 210 214 213 216 218 221 222 224 227
236 248 248 248 245 248 256 249 240 240 245 252 259 264 272 274 265 256 252 248 250 246 237 228 224 216 212 204 200 198 201 201 197 197 204 206 212 212 216 218 218 219 223 226
221 236 247 252 245 259 253 242 234 233 234 243 253 261 252 249 246 251 256 251 250 250 251 242 238 230 224 221 208 203 204 203 205 204 204 204 208 210 215 215 214 220 223 225
234 236 247 259 247 248 264 170 236 242 247 246 253 255 252 260 262 266 264 259 260 262 261 257 250 243 233 224 220 208 198 201 205 207 205 208 211 212 214 212 216 224 227 227
234 231 235 241 251 263 251 209 212 235 252 243 241 237 236 248 244 241 248 254 266 268 265 263 255 239 224 218 216 208 201 203 207 210 210 210 214 215 217 218 219 225 230 232
207 228 236 233 247 253 245 148 210 246 249 222 237 233 220 214 240 244 37 286 270 273 274 267 251 228 214 207 207 207 205 208 212 213 212 210 210 213 218 226 227 225 226 231
192 207 227 237 245 257 270 147 193 229 280 93 246 236 219 232 291 6 341 297 283 284 285 268 239 222 211 200 205 210 210 215 215 207 204 205 203 212 215 222 226 226 224 224
226 218 219 228 237 243 140 172 215 289 6 318 267 242 234 263 309 287 272 272 272 275 272 248 225 215 211 207 212 214 215 213 202 197 200 202 203 202 202 206 220 225 220 224
239 248 247 235 251 343 197 234 283 314 302 299 287 262 241 256 266 257 257 255 255 256 255 245 227 216 220 220 225 222 210 196 197 200 202 205 206 204 208 204 204 218 219 223
236 261 255 254 256 265 261 259 267 285 300 301 292 270 252 257 255 250 251 248 244 240 237 236 224 216 220 229 234 231 198 195 198 201 205 208 206 199 196 199 201 209 218 224
253 236 248 254 262 264 259 257 262 277 284 281 280 264 254 256 252 245 246 248 249 234 220 223 225 222 224 224 227 221 199 198 196 195 199 206 206 199 189 172 168 231 208 250
232 237 244 254 263 267 275 275 265 266 267 267 267 266 262 254 250 246 244 243 233 223 210 210 216 219 221 216 215 209 205 201 198 195 196 201 201 190 183 177 154 91 53 75